Lid_Strength_Index
6 9 10 8 8 7 8 10 10 8 6 7 9 9 8 6 7 7 8 6 5 5 4 3 2 2 2 2 2 1 2 1 1 1 2 2 2 1 1 1 0 0 0 -0
8 9 7 6 6 7 8 9 10 8 6 7 8 8 7 7 7 7 7 6 6 5 6 4 3 2 3 3 2 2 1 1 1 1 1 1 1 1 0 1 0 0 0 0
9 8 5 7 8 8 9 10 9 9 7 7 8 9 9 6 7 6 6 6 5 5 6 4 3 3 3 3 2 2 2 1 1 1 1 1 1 1 2 2 1 0 0 1
9 6 7 7 8 8 13 8 8 8 10 13 9 14 11 9 8 8 7 6 6 4 5 4 3 3 3 2 2 2 2 1 1 1 1 2 2 3 2 2 1 0 1 1
9 8 9 9 8 7 9 7 8 8 10 12 10 13 13 9 10 8 6 7 6 5 5 4 3 3 3 2 2 2 1 1 1 1 1 2 2 2 1 1 2 1 0 0
8 6 8 8 7 6 6 8 8 8 11 14 12 12 14 12 10 8 6 6 6 6 5 3 3 3 3 2 2 2 2 2 1 1 1 2 2 2 2 2 2 1 1 0
9 8 7 6 9 8 8 11 15 17 16 17 12 12 11 8 7 7 7 6 5 5 4 4 4 4 3 3 2 2 2 2 1 1 1 1 2 2 2 2 2 2 2 1
12 12 9 7 9 10 9 11 14 18 19 16 11 14 11 7 6 6 5 5 5 5 4 4 4 4 3 3 2 2 2 2 2 1 2 1 1 1 1 1 1 1 1 1
12 11 7 6 7 7 10 12 10 12 13 14 13 10 8 6 6 6 6 5 5 5 4 4 4 3 3 3 3 2 2 2 2 2 1 1 1 1 1 1 1 1 1 1
10 13 9 8 7 7 9 8 12 12 17 17 14 13 13 9 8 7 7 6 5 5 4 4 4 3 3 3 2 2 2 2 2 1 1 1 1 1 1 1 1 1 1 1
10 12 10 8 9 10 10 11 10 11 12 16 17 15 9 10 8 8 7 6 5 5 5 4 4 3 3 2 2 2 2 2 2 2 1 1 1 1 1 1 1 1 1 1
9 12 14 11 8 6 8 9 9 13 14 12 13 15 7 8 7 7 6 6 5 4 4 4 4 3 3 3 3 2 2 2 2 1 2 2 2 1 1 1 1 1 1 1
9 12 15 13 11 8 9 9 10 10 10 12 15 14 8 7 7 7 6 6 6 5 5 4 4 4 4 3 3 3 2 3 2 2 2 2 2 2 2 1 1 1 1 1
6 11 13 15 12 10 11 9 8 11 13 13 14 12 10 8 7 7 7 6 6 5 5 5 4 4 4 3 3 3 2 2 2 3 2 2 2 2 1 1 1 1 1 1
9 12 11 10 9 9 8 9 9 9 9 12 12 12 10 9 8 7 5 6 6 7 7 5 5 4 4 3 3 2 2 2 2 2 2 2 2 1 1 1 1 1 1 1
9 11 10 11 8 8 9 8 8 8 8 10 10 11 8 7 6 6 6 6 6 6 5 5 4 4 4 4 3 3 2 2 2 2 2 2 2 2 1 1 1 1 1 1
10 11 12 13 9 9 12 9 8 9 8 9 12 9 8 8 6 6 6 7 6 6 5 5 4 4 4 3 3 3 2 2 2 2 2 2 2 2 2 1 1 1 1 1
9 11 10 13 13 17 10 7 7 8 7 7 8 7 7 7 6 5 5 6 6 5 5 5 4 4 3 3 2 2 2 2 2 2 2 2 2 2 1 1 2 1 1 1
7 10 12 14 16 13 10 8 8 9 9 6 8 7 7 6 6 7 5 5 5 5 4 4 3 3 3 3 2 4 5 4 2 2 3 2 2 2 2 2 2 1 2 2
7 8 10 12 15 17 11 7 6 6 12 7 7 7 7 7 11 9 8 5 5 4 4 4 3 3 3 3 4 4 3 3 3 3 2 2 1 2 2 2 2 2 1 2
12 11 11 11 13 12 9 7 6 13 13 7 6 6 7 8 7 6 5 5 4 4 4 3 3 3 3 3 3 4 3 3 2 2 2 3 3 1 1 2 2 2 1 2
14 14 13 11 13 16 7 8 12 9 7 6 7 6 7 6 6 5 5 5 4 4 4 3 3 3 2 3 3 3 3 2 2 3 4 2 2 2 1 2 2 4 6 6
14 11 13 13 13 9 7 8 6 6 7 8 6 6 6 6 6 5 5 5 4 4 4 4 4 3 3 3 3 4 3 3 3 4 2 2 3 2 2 2 4 6 7 7
10 8 11 11 9 8 7 5 5 5 6 5 6 5 5 6 5 5 5 5 4 4 4 4 4 4 4 3 3 3 3 3 2 3 4 3 3 2 3 4 4 6 7 8
9 9 10 10 9 8 6 6 5 5 5 6 4 4 5 5 5 5 5 5 4 4 3 3 3 3 4 4 4 4 3 2 3 4 5 5 4 4 3 5 5 6 7 7
8 10 11 12 8 8 8 5 4 5 5 4 4 5 4 4 5 4 5 4 4 4 3 3 3 4 4 4 4 3 3 4 4 4 6 7 5 6 6 6 7 6 7 8